Regional Weather Roundup
Issued by NWS

Home | Current Version | Previous Version | Text Only | Print | Product List | Glossary On
Versions: 1 2 3 4 5 6 7 8 9 10 11 12 13 14 15 16 17 18 19 20 21 22 23 24 25 26 27
000
ASCA42 TJSJ 241810
RWRPR
PUERTO RICO/U.S. VIRGIN ISLANDS HOURLY WEATHER ROUNDUP
NATIONAL WEATHER SERVICE SAN JUAN PR
200 PM AST SAT JUN 24 2017

PRZ001>002-007>008-010-241900-
PUERTO RICO

CITY           SKY/WX    TMP DP  RH WIND       PRES   REMARKS
SAN JUAN LMM   MOSUNNY   88  75  66 E20G26    30.03F HX  97
PONCE          MOSUNNY   91  75  59 SE14G25   30.04F HX 102
CEIBA          MOSUNNY   86  79  79 E14       30.06F HX  99
$$

VIZ001>002-241900-
U.S. VIRGIN ISLANDS

CITY           SKY/WX    TMP DP  RH WIND       PRES   REMARKS
CHARLOTTE AMA  SUNNY     90  75  62 SE16      30.03F HX 100
CHRISTIANSTED  MOSUNNY   90  73  58 E16       30.04F HX  98
$$

HOURLY WEATHER ROUNDUP FOR THE NEWS MEDIA

CITY           SKY/WX    TMP DP  RH WIND       PRES   REMARKS
ORLANDO        SUNNY     92  70  48 CALM      30.07F HX  97
NEW YORK       MOSUNNY   86  57  37 W18G31    29.73R
NEWARK         MOSUNNY   86  53  32 W18G31    29.74R
CHICAGO        PTSUNNY   73  49  42 W12G22    29.99R
HARTFORD       CLOUDY    80  72  76 W9        29.59S
BOSTON         MOSUNNY   80  70  71 W13       29.58R
DALLAS         CLOUDY    75  70  84 NE7       30.11S
PHILADELPHIA   MOSUNNY   86  58  38 W20       29.80S
LOS ANGELES    PTSUNNY   67  60  78 W14       29.91R
WASHINGTON DC  PTSUNNY   84  58  40 W14G21    29.89R



USA.gov is the U.S. government's official web portal to all federal, state and local government web resources and services.